EZY87PX EGKK-LEIB

Flight info

Callsign EZY87PX
Flight time 2h 9m
Altitude 35000
Route BOGNA L612 BENBO Y47 DRAKE L151 SITET UN859 SOPIL DCT BALAN DCT EVPOK DCT NARAK DCT GAI DCT LOMRA DCT ROCAN DCT PUMAL DCT XEPLA DCT BCN Z174 CORDA
Aircraft A320/M-SDE2E3FGHIRWXY/LB1

Departure

Time 2026-04-16 09:15
Airport London Gatwick Airport (EGKK)

Arrival

Time 2026-04-16 11:24
Airport Ibiza Airport (LEIB)
Time Latitude Longitude Altitude Speed Heading
2026-04-16 08:39 51.15573 -0.17756 204 ft 0 kts 348°
2026-04-16 09:02 51.15552 -0.17750 216 ft 4 kts 358°
2026-04-16 09:02 51.15525 -0.17753 212 ft 4 kts 21°
2026-04-16 09:02 51.15505 -0.17775 215 ft 4 kts 62°
2026-04-16 09:03 51.15500 -0.17791 206 ft 0 kts 77°
2026-04-16 09:06 51.15501 -0.17782 208 ft 1 kts 77°
2026-04-16 09:06 51.15504 -0.17761 204 ft 2 kts 77°
2026-04-16 09:06 51.15509 -0.17731 212 ft 3 kts 77°
2026-04-16 09:06 51.15514 -0.17692 211 ft 5 kts 78°
2026-04-16 09:07 51.15524 -0.17618 209 ft 9 kts 78°
2026-04-16 09:07 51.15538 -0.17507 207 ft 12 kts 78°
2026-04-16 09:07 51.15507 -0.17423 205 ft 11 kts 164°
2026-04-16 09:07 51.15431 -0.17398 211 ft 12 kts 168°
2026-04-16 09:08 51.15350 -0.17370 206 ft 12 kts 168°
2026-04-16 09:08 51.15266 -0.17335 210 ft 13 kts 157°
2026-04-16 09:08 51.15193 -0.17253 207 ft 12 kts 134°
2026-04-16 09:08 51.15189 -0.17127 215 ft 11 kts 75°
2026-04-16 09:09 51.15206 -0.17011 212 ft 10 kts 77°
2026-04-16 09:09 51.15218 -0.16924 214 ft 4 kts 78°
2026-04-16 09:09 51.15218 -0.16919 212 ft 0 kts 78°
2026-04-16 09:13 51.15219 -0.16917 212 ft 1 kts 78°
2026-04-16 09:13 51.15219 -0.16824 207 ft 11 kts 112°
2026-04-16 09:13 51.15156 -0.16772 202 ft 11 kts 177°
2026-04-16 09:14 51.15116 -0.16844 205 ft 7 kts 258°
2026-04-16 09:14 51.15102 -0.16937 203 ft 16 kts 257°
2026-04-16 09:14 51.15038 -0.17392 212 ft 75 kts 257°
2026-04-16 09:14 51.14881 -0.18515 208 ft 130 kts 257°
2026-04-16 09:15 51.14659 -0.20137 392 ft 158 kts 254°
2026-04-16 09:15 51.14437 -0.21813 1109 ft 154 kts 255°
2026-04-16 09:15 51.14218 -0.23497 1714 ft 161 kts 257°
2026-04-16 09:15 51.13964 -0.25371 2044 ft 184 kts 256°
2026-04-16 09:16 51.13662 -0.27489 2469 ft 205 kts 255°
2026-04-16 09:16 51.13340 -0.29736 3223 ft 210 kts 257°
2026-04-16 09:16 51.13011 -0.32047 3857 ft 215 kts 256°
2026-04-16 09:16 51.12684 -0.34360 4289 ft 214 kts 256°
2026-04-16 09:17 51.12360 -0.36678 4735 ft 215 kts 256°
2026-04-16 09:17 51.12026 -0.39002 5166 ft 216 kts 252°
2026-04-16 09:17 51.11243 -0.41012 5606 ft 219 kts 221°
2026-04-16 09:17 51.09853 -0.42018 6050 ft 226 kts 189°
2026-04-16 09:18 51.08259 -0.41936 6495 ft 232 kts 179°
2026-04-16 09:18 51.06628 -0.41723 6923 ft 243 kts 179°
2026-04-16 09:18 51.04879 -0.41492 7360 ft 261 kts 179°
2026-04-16 09:18 51.03042 -0.41247 7790 ft 268 kts 179°
2026-04-16 09:19 51.01167 -0.40998 8229 ft 272 kts 179°
2026-04-16 09:19 50.99275 -0.40751 8665 ft 274 kts 179°
2026-04-16 09:19 50.97366 -0.40503 9112 ft 276 kts 179°
2026-04-16 09:19 50.95443 -0.40256 9572 ft 278 kts 180°
2026-04-16 09:20 50.93502 -0.40010 10061 ft 281 kts 180°
2026-04-16 09:20 50.91547 -0.39762 10490 ft 283 kts 180°
2026-04-16 09:20 50.89579 -0.39512 10929 ft 285 kts 180°
2026-04-16 09:20 50.87591 -0.39261 11371 ft 288 kts 180°
2026-04-16 09:21 50.85587 -0.39009 11818 ft 291 kts 180°
2026-04-16 09:21 50.83574 -0.38432 12277 ft 299 kts 167°
2026-04-16 09:21 50.81659 -0.37055 12749 ft 308 kts 152°
2026-04-16 09:21 50.79858 -0.35185 13227 ft 311 kts 151°
2026-04-16 09:22 50.78041 -0.33289 13712 ft 314 kts 151°
2026-04-16 09:22 50.76208 -0.31376 14171 ft 317 kts 151°
2026-04-16 09:22 50.74358 -0.29450 14602 ft 320 kts 151°
2026-04-16 09:22 50.72492 -0.27518 15035 ft 322 kts 152°
2026-04-16 09:23 50.70614 -0.25585 15483 ft 324 kts 152°
2026-04-16 09:23 50.68713 -0.23626 15951 ft 331 kts 152°
2026-04-16 09:23 50.66766 -0.21603 16400 ft 339 kts 151°
2026-04-16 09:23 50.64777 -0.19518 16843 ft 347 kts 151°
2026-04-16 09:24 50.62748 -0.17379 17317 ft 354 kts 151°
2026-04-16 09:24 50.60677 -0.15200 17790 ft 361 kts 151°
2026-04-16 09:24 50.58568 -0.12991 18291 ft 367 kts 151°
2026-04-16 09:24 50.56429 -0.10756 18737 ft 373 kts 151°
2026-04-16 09:25 50.54245 -0.08480 19166 ft 378 kts 151°
2026-04-16 09:25 50.52040 -0.06182 19597 ft 384 kts 151°
2026-04-16 09:25 50.49800 -0.03857 20024 ft 387 kts 153°
2026-04-16 09:25 50.47407 -0.01951 20481 ft 385 kts 165°
2026-04-16 09:26 50.44845 -0.00822 20939 ft 381 kts 176°
2026-04-16 09:26 50.42220 -0.00498 21394 ft 377 kts 187°
2026-04-16 09:26 50.39630 -0.00951 21842 ft 373 kts 197°
2026-04-16 09:26 50.37097 -0.01859 22312 ft 374 kts 198°
2026-04-16 09:27 50.34549 -0.02776 22792 ft 377 kts 198°
2026-04-16 09:27 50.31986 -0.03692 23289 ft 379 kts 198°
2026-04-16 09:27 50.29410 -0.04606 23780 ft 380 kts 198°
2026-04-16 09:27 50.26831 -0.05521 24201 ft 382 kts 199°
2026-04-16 09:28 50.24220 -0.06349 24616 ft 386 kts 193°
2026-04-16 09:28 50.21506 -0.06500 25049 ft 395 kts 182°
2026-04-16 09:28 50.18766 -0.05809 25455 ft 404 kts 171°
2026-04-16 09:28 50.16104 -0.04267 25888 ft 412 kts 162°
2026-04-16 09:29 50.13496 -0.02432 26346 ft 412 kts 162°
2026-04-16 09:29 50.10882 -0.00620 26799 ft 410 kts 165°
2026-04-16 09:29 50.08199 0.00740 27258 ft 402 kts 173°
2026-04-16 09:29 50.05486 0.01794 27732 ft 401 kts 173°
2026-04-16 09:30 50.02779 0.02849 28204 ft 401 kts 173°
2026-04-16 09:30 50.00086 0.03906 28687 ft 400 kts 173°
2026-04-16 09:30 49.97384 0.04971 29124 ft 400 kts 173°
2026-04-16 09:30 49.94681 0.06037 29467 ft 402 kts 173°
2026-04-16 09:31 49.91965 0.07109 29833 ft 404 kts 173°
2026-04-16 09:31 49.89223 0.08180 29990 ft 411 kts 173°
2026-04-16 09:31 49.86423 0.09265 30137 ft 418 kts 173°
2026-04-16 09:31 49.83580 0.10367 30279 ft 424 kts 173°
2026-04-16 09:32 49.80697 0.11483 30403 ft 431 kts 173°
2026-04-16 09:32 49.77768 0.12621 30532 ft 437 kts 173°
2026-04-16 09:32 49.74803 0.13775 30651 ft 443 kts 173°
2026-04-16 09:32 49.71796 0.14949 30757 ft 449 kts 173°
2026-04-16 09:33 49.68751 0.16139 30883 ft 454 kts 173°
2026-04-16 09:33 49.65663 0.17351 31009 ft 459 kts 172°
2026-04-16 09:33 49.62552 0.18599 31170 ft 463 kts 172°
2026-04-16 09:33 49.59440 0.19867 31463 ft 464 kts 172°
2026-04-16 09:34 49.56323 0.21146 31770 ft 463 kts 172°
2026-04-16 09:34 49.53209 0.22423 32088 ft 463 kts 172°
2026-04-16 09:34 49.50100 0.23688 32377 ft 462 kts 172°
2026-04-16 09:34 49.46994 0.24937 32716 ft 461 kts 172°
2026-04-16 09:35 49.43892 0.26172 33048 ft 460 kts 172°
2026-04-16 09:35 49.40796 0.27400 33375 ft 459 kts 172°
2026-04-16 09:35 49.37704 0.28628 33713 ft 459 kts 172°
2026-04-16 09:35 49.34618 0.29858 34031 ft 458 kts 172°
2026-04-16 09:36 49.31537 0.31089 34333 ft 457 kts 173°
2026-04-16 09:36 49.28469 0.32329 34598 ft 457 kts 172°
2026-04-16 09:36 49.25401 0.33604 34868 ft 456 kts 171°
2026-04-16 09:36 49.22342 0.34902 35121 ft 456 kts 171°
2026-04-16 09:37 49.19287 0.36213 35227 ft 455 kts 171°
2026-04-16 09:37 49.13227 0.38795 35254 ft 452 kts 172°
2026-04-16 09:38 49.07166 0.41341 35225 ft 451 kts 171°
2026-04-16 09:38 49.01115 0.43859 35258 ft 451 kts 171°
2026-04-16 09:39 48.95029 0.46391 35259 ft 454 kts 171°
2026-04-16 09:39 48.88929 0.48929 35261 ft 454 kts 171°
2026-04-16 09:40 48.82827 0.51464 35261 ft 454 kts 171°
2026-04-16 09:40 48.76732 0.53978 35264 ft 454 kts 172°
2026-04-16 09:41 48.70620 0.56389 35268 ft 454 kts 172°
2026-04-16 09:41 48.64505 0.58742 35246 ft 453 kts 172°
2026-04-16 09:42 48.58392 0.61105 35253 ft 453 kts 172°
2026-04-16 09:42 48.52287 0.63492 35262 ft 453 kts 172°
2026-04-16 09:43 48.46183 0.65940 35268 ft 454 kts 171°
2026-04-16 09:43 48.41115 0.68020 35254 ft 454 kts 171°
2026-04-16 09:44 48.35021 0.70522 35255 ft 454 kts 171°
2026-04-16 09:44 48.28931 0.72984 35256 ft 454 kts 171°
2026-04-16 09:45 48.22833 0.75433 35271 ft 453 kts 171°
2026-04-16 09:45 48.16731 0.77839 35252 ft 453 kts 171°
2026-04-16 09:46 48.10631 0.80231 35267 ft 453 kts 171°
2026-04-16 09:46 48.04531 0.82610 35278 ft 453 kts 171°
2026-04-16 09:47 47.98436 0.84990 35263 ft 453 kts 170°
2026-04-16 09:47 47.92331 0.87369 35266 ft 454 kts 171°
2026-04-16 09:48 47.86219 0.89744 35268 ft 454 kts 171°
2026-04-16 09:48 47.80096 0.92116 35270 ft 455 kts 171°
2026-04-16 09:49 47.73969 0.94498 35262 ft 455 kts 170°
2026-04-16 09:49 47.67843 0.96875 35270 ft 455 kts 170°
2026-04-16 09:50 47.61705 0.99236 35273 ft 456 kts 170°
2026-04-16 09:50 47.55561 1.01585 35265 ft 456 kts 170°
2026-04-16 09:51 47.49419 1.03941 35274 ft 456 kts 170°
2026-04-16 09:51 47.43258 1.06088 35283 ft 451 kts 178°
2026-04-16 09:52 47.37058 1.06313 35266 ft 445 kts 186°
2026-04-16 09:52 47.30860 1.06169 35274 ft 445 kts 186°
2026-04-16 09:53 47.24668 1.06026 35280 ft 446 kts 186°
2026-04-16 09:53 47.18467 1.05872 35285 ft 446 kts 186°
2026-04-16 09:54 47.12262 1.05722 35276 ft 446 kts 186°
2026-04-16 09:54 47.06060 1.05577 35282 ft 446 kts 186°
2026-04-16 09:55 46.99863 1.05417 35284 ft 446 kts 186°
2026-04-16 09:55 46.93664 1.05165 35279 ft 445 kts 186°
2026-04-16 09:56 46.87473 1.04868 35286 ft 445 kts 186°
2026-04-16 09:56 46.81288 1.04583 35290 ft 445 kts 186°
2026-04-16 09:57 46.75096 1.04319 35290 ft 445 kts 186°
2026-04-16 09:57 46.68904 1.04059 35291 ft 445 kts 186°
2026-04-16 09:58 46.62715 1.03804 35292 ft 445 kts 186°
2026-04-16 09:58 46.56526 1.03545 35293 ft 445 kts 186°
2026-04-16 09:59 46.50330 1.03799 35284 ft 451 kts 174°
2026-04-16 09:59 46.44186 1.05812 35278 ft 453 kts 171°
2026-04-16 10:00 46.38051 1.07878 35283 ft 453 kts 171°
2026-04-16 10:00 46.31903 1.09927 35272 ft 453 kts 171°
2026-04-16 10:01 46.22681 1.12983 35280 ft 453 kts 171°
2026-04-16 10:01 46.16523 1.15024 35290 ft 454 kts 171°
2026-04-16 10:02 46.10374 1.17068 35281 ft 454 kts 170°
2026-04-16 10:02 46.04217 1.19103 35292 ft 454 kts 170°
2026-04-16 10:03 45.98057 1.21125 35290 ft 455 kts 170°
2026-04-16 10:03 45.91881 1.23148 35282 ft 455 kts 170°
2026-04-16 10:04 45.85704 1.25173 35289 ft 456 kts 170°
2026-04-16 10:04 45.79516 1.27207 35294 ft 456 kts 170°
2026-04-16 10:05 45.73325 1.29231 35288 ft 456 kts 170°
2026-04-16 10:05 45.67136 1.31235 35271 ft 457 kts 170°
2026-04-16 10:06 45.60931 1.33243 35279 ft 457 kts 170°
2026-04-16 10:06 45.54734 1.35251 35262 ft 457 kts 170°
2026-04-16 10:07 45.48542 1.37260 35265 ft 457 kts 169°
2026-04-16 10:07 45.42343 1.39273 35271 ft 457 kts 170°
2026-04-16 10:08 45.36144 1.41260 35264 ft 457 kts 169°
2026-04-16 10:08 45.29943 1.43250 35266 ft 457 kts 169°
2026-04-16 10:09 45.23748 1.45234 35270 ft 457 kts 170°
2026-04-16 10:09 45.17545 1.47209 35264 ft 457 kts 169°
2026-04-16 10:10 45.11345 1.49186 35273 ft 457 kts 169°
2026-04-16 10:10 45.05148 1.51169 35277 ft 456 kts 169°
2026-04-16 10:11 44.98951 1.53135 35267 ft 456 kts 169°
2026-04-16 10:11 44.92758 1.55097 35253 ft 457 kts 169°
2026-04-16 10:12 44.86545 1.57060 35251 ft 457 kts 169°
2026-04-16 10:12 44.80335 1.59008 35251 ft 457 kts 169°
2026-04-16 10:13 44.74122 1.60958 35250 ft 457 kts 169°
2026-04-16 10:13 44.67912 1.62917 35250 ft 457 kts 169°
2026-04-16 10:14 44.61707 1.64869 35251 ft 457 kts 169°
2026-04-16 10:14 44.55495 1.66816 35245 ft 457 kts 169°
2026-04-16 10:15 44.49281 1.68757 35248 ft 457 kts 169°
2026-04-16 10:15 44.43068 1.70689 35249 ft 458 kts 169°
2026-04-16 10:16 44.36848 1.72612 35244 ft 457 kts 169°
2026-04-16 10:16 44.30633 1.74531 35246 ft 457 kts 169°
2026-04-16 10:17 44.24384 1.76221 35245 ft 457 kts 173°
2026-04-16 10:17 44.18102 1.77525 35243 ft 457 kts 174°
2026-04-16 10:18 44.11805 1.78797 35250 ft 457 kts 173°
2026-04-16 10:18 44.05512 1.80156 35249 ft 457 kts 173°
2026-04-16 10:19 43.99229 1.81563 35243 ft 457 kts 172°
2026-04-16 10:19 43.92937 1.82843 35247 ft 457 kts 175°
2026-04-16 10:20 43.86605 1.83505 35253 ft 456 kts 179°
2026-04-16 10:20 43.80273 1.83933 35254 ft 456 kts 179°
2026-04-16 10:21 43.73937 1.84453 35253 ft 456 kts 178°
2026-04-16 10:21 43.67601 1.85073 35258 ft 456 kts 177°
2026-04-16 10:22 43.61267 1.85718 35254 ft 456 kts 177°
2026-04-16 10:22 43.54977 1.86341 35249 ft 456 kts 178°
2026-04-16 10:23 43.49674 1.86849 35253 ft 456 kts 178°
2026-04-16 10:23 43.43341 1.87453 35243 ft 456 kts 178°
2026-04-16 10:24 43.37009 1.88061 35234 ft 456 kts 177°
2026-04-16 10:24 43.30677 1.88673 35231 ft 456 kts 177°
2026-04-16 10:25 43.24346 1.89278 35232 ft 456 kts 178°
2026-04-16 10:25 43.18007 1.89880 35229 ft 456 kts 177°
2026-04-16 10:26 43.11666 1.90479 35226 ft 456 kts 177°
2026-04-16 10:26 43.05327 1.91079 35235 ft 457 kts 177°
2026-04-16 10:27 42.98969 1.91685 35225 ft 458 kts 177°
2026-04-16 10:27 42.92604 1.92287 35217 ft 459 kts 177°
2026-04-16 10:28 42.86227 1.92892 35215 ft 460 kts 177°
2026-04-16 10:28 42.79833 1.93488 35219 ft 461 kts 177°
2026-04-16 10:29 42.73436 1.94089 35215 ft 461 kts 177°
2026-04-16 10:29 42.67033 1.94705 35212 ft 461 kts 176°
2026-04-16 10:30 42.60664 1.95769 35212 ft 461 kts 172°
2026-04-16 10:30 42.54367 1.97186 35212 ft 461 kts 171°
2026-04-16 10:31 42.47993 1.98608 35198 ft 462 kts 172°
2026-04-16 10:31 42.41638 1.99899 35198 ft 462 kts 172°
2026-04-16 10:32 42.35315 2.01086 35193 ft 462 kts 174°
2026-04-16 10:32 42.28913 2.01808 35190 ft 462 kts 178°
2026-04-16 10:33 42.22498 2.02252 35186 ft 462 kts 178°
2026-04-16 10:33 42.16085 2.02757 35174 ft 462 kts 176°
2026-04-16 10:34 42.09671 2.03370 35179 ft 462 kts 176°
2026-04-16 10:34 42.03257 2.04010 35181 ft 462 kts 176°
2026-04-16 10:35 41.96849 2.04627 34918 ft 459 kts 176°
2026-04-16 10:35 41.93660 2.04925 34677 ft 458 kts 176°
2026-04-16 10:35 41.90485 2.05216 34439 ft 456 kts 176°
2026-04-16 10:36 41.87321 2.05506 34193 ft 455 kts 176°
2026-04-16 10:36 41.84166 2.05800 33934 ft 453 kts 176°
2026-04-16 10:36 41.81025 2.06095 33673 ft 452 kts 176°
2026-04-16 10:36 41.77899 2.06387 33405 ft 450 kts 176°
2026-04-16 10:37 41.74782 2.06681 33133 ft 448 kts 176°
2026-04-16 10:37 41.71676 2.06976 32876 ft 446 kts 176°
2026-04-16 10:37 41.68586 2.07267 32620 ft 445 kts 176°
2026-04-16 10:37 41.65506 2.07553 32365 ft 443 kts 176°
2026-04-16 10:38 41.62436 2.07838 32090 ft 441 kts 176°
2026-04-16 10:38 41.59379 2.08122 31836 ft 440 kts 176°
2026-04-16 10:38 41.56333 2.08404 31584 ft 438 kts 176°
2026-04-16 10:38 41.53297 2.08683 31332 ft 437 kts 176°
2026-04-16 10:39 41.50266 2.08962 31082 ft 435 kts 176°
2026-04-16 10:39 41.47251 2.09240 30850 ft 434 kts 176°
2026-04-16 10:39 41.44249 2.09519 30612 ft 432 kts 176°
2026-04-16 10:39 41.41245 2.09800 30376 ft 431 kts 176°
2026-04-16 10:40 41.38266 2.10080 30113 ft 429 kts 176°
2026-04-16 10:40 41.35293 2.10358 29827 ft 427 kts 176°
2026-04-16 10:40 41.32333 2.10632 29553 ft 425 kts 176°
2026-04-16 10:40 41.29385 2.10927 29276 ft 424 kts 175°
2026-04-16 10:41 41.26459 2.11333 29002 ft 422 kts 173°
2026-04-16 10:41 41.23549 2.11827 28730 ft 420 kts 172°
2026-04-16 10:41 41.20670 2.12360 28454 ft 418 kts 172°
2026-04-16 10:41 41.17793 2.12900 28188 ft 416 kts 172°
2026-04-16 10:42 41.14940 2.13421 27924 ft 414 kts 172°
2026-04-16 10:42 41.12092 2.13924 27662 ft 412 kts 172°
2026-04-16 10:42 41.09255 2.14406 27402 ft 410 kts 173°
2026-04-16 10:42 41.06434 2.14872 27148 ft 408 kts 173°
2026-04-16 10:43 41.03622 2.15333 26891 ft 406 kts 173°
2026-04-16 10:43 41.00822 2.15793 26640 ft 405 kts 173°
2026-04-16 10:43 40.98029 2.16257 26387 ft 403 kts 173°
2026-04-16 10:43 40.95254 2.16720 26139 ft 401 kts 173°
2026-04-16 10:44 40.92496 2.17177 25892 ft 399 kts 173°
2026-04-16 10:44 40.89747 2.17634 25652 ft 398 kts 173°
2026-04-16 10:44 40.87008 2.18090 25402 ft 396 kts 173°
2026-04-16 10:44 40.84279 2.18546 25162 ft 394 kts 173°
2026-04-16 10:45 40.81562 2.18996 24930 ft 393 kts 173°
2026-04-16 10:45 40.78848 2.19444 24700 ft 391 kts 173°
2026-04-16 10:45 40.76152 2.19890 24463 ft 390 kts 173°
2026-04-16 10:45 40.73466 2.20334 24230 ft 388 kts 173°
2026-04-16 10:46 40.70796 2.20772 24002 ft 386 kts 173°
2026-04-16 10:46 40.68133 2.21209 23766 ft 385 kts 173°
2026-04-16 10:46 40.65482 2.21646 23489 ft 382 kts 173°
2026-04-16 10:46 40.62860 2.22078 23047 ft 379 kts 173°
2026-04-16 10:47 40.60247 2.22504 22595 ft 378 kts 173°
2026-04-16 10:47 40.57646 2.22930 22167 ft 375 kts 173°
2026-04-16 10:47 40.55067 2.23356 21950 ft 372 kts 173°
2026-04-16 10:47 40.52498 2.23780 21740 ft 371 kts 173°
2026-04-16 10:48 40.49946 2.24200 21539 ft 369 kts 173°
2026-04-16 10:48 40.47398 2.24616 21336 ft 368 kts 173°
2026-04-16 10:48 40.44861 2.25030 21138 ft 367 kts 173°
2026-04-16 10:48 40.42331 2.25447 20938 ft 366 kts 173°
2026-04-16 10:49 40.39813 2.25924 20739 ft 365 kts 171°
2026-04-16 10:49 40.37320 2.26524 20539 ft 364 kts 169°
2026-04-16 10:49 40.34845 2.27187 20346 ft 362 kts 168°
2026-04-16 10:49 40.32383 2.27871 20153 ft 361 kts 168°
2026-04-16 10:50 40.29928 2.28552 19955 ft 360 kts 168°
2026-04-16 10:50 40.27480 2.29215 19778 ft 359 kts 169°
2026-04-16 10:50 40.25035 2.29858 19585 ft 358 kts 169°
2026-04-16 10:50 40.22595 2.30492 19395 ft 357 kts 169°
2026-04-16 10:51 40.20159 2.31119 19247 ft 357 kts 169°
2026-04-16 10:51 40.17727 2.31743 19239 ft 356 kts 169°
2026-04-16 10:51 40.15291 2.32369 19245 ft 357 kts 169°
2026-04-16 10:51 40.12859 2.32997 19244 ft 357 kts 169°
2026-04-16 10:52 40.10453 2.33620 19244 ft 357 kts 169°
2026-04-16 10:52 40.07985 2.34257 19245 ft 357 kts 169°
2026-04-16 10:52 40.05550 2.34883 19245 ft 357 kts 169°
2026-04-16 10:52 40.03121 2.35507 19244 ft 357 kts 169°
2026-04-16 10:53 40.00686 2.36132 19242 ft 357 kts 169°
2026-04-16 10:53 39.98251 2.36758 19241 ft 357 kts 169°
2026-04-16 10:53 39.95848 2.37375 19241 ft 357 kts 169°
2026-04-16 10:53 39.93412 2.37998 19242 ft 357 kts 169°
2026-04-16 10:54 39.90977 2.38621 19239 ft 357 kts 169°
2026-04-16 10:54 39.88542 2.39244 19239 ft 357 kts 169°
2026-04-16 10:54 39.86107 2.39862 19239 ft 357 kts 169°
2026-04-16 10:54 39.83671 2.40479 19240 ft 357 kts 169°
2026-04-16 10:55 39.81235 2.41099 19240 ft 357 kts 169°
2026-04-16 10:55 39.78800 2.41722 19241 ft 357 kts 169°
2026-04-16 10:55 39.76358 2.42321 19234 ft 356 kts 173°
2026-04-16 10:55 39.73891 2.42462 19242 ft 356 kts 185°
2026-04-16 10:56 39.71430 2.42114 19243 ft 355 kts 188°
2026-04-16 10:56 39.68974 2.41732 19243 ft 355 kts 188°
2026-04-16 10:56 39.66521 2.41351 19243 ft 355 kts 188°
2026-04-16 10:56 39.64064 2.40974 19243 ft 355 kts 188°
2026-04-16 10:57 39.61604 2.40601 19245 ft 355 kts 188°
2026-04-16 10:57 39.59151 2.40205 19241 ft 355 kts 192°
2026-04-16 10:57 39.56802 2.39280 19240 ft 352 kts 207°
2026-04-16 10:57 39.54705 2.37681 19211 ft 350 kts 220°
2026-04-16 10:58 39.52958 2.35525 18956 ft 344 kts 234°
2026-04-16 10:58 39.51609 2.32991 18750 ft 341 kts 240°
2026-04-16 10:58 39.50319 2.30418 18541 ft 340 kts 240°
2026-04-16 10:58 39.49026 2.27867 18315 ft 338 kts 240°
2026-04-16 10:59 39.47737 2.25335 18124 ft 336 kts 240°
2026-04-16 10:59 39.46450 2.22814 17921 ft 335 kts 240°
2026-04-16 10:59 39.45169 2.20300 17729 ft 334 kts 240°
2026-04-16 10:59 39.43892 2.17792 17523 ft 333 kts 240°
2026-04-16 11:00 39.42618 2.15287 17325 ft 332 kts 240°
2026-04-16 11:00 39.41352 2.12798 17131 ft 332 kts 240°
2026-04-16 11:00 39.40083 2.10309 16932 ft 331 kts 240°
2026-04-16 11:00 39.38819 2.07834 16737 ft 330 kts 240°
2026-04-16 11:01 39.37555 2.05358 16530 ft 329 kts 240°
2026-04-16 11:01 39.36295 2.02890 16342 ft 329 kts 239°
2026-04-16 11:01 39.35036 2.00428 16143 ft 328 kts 239°
2026-04-16 11:01 39.33778 1.97975 15947 ft 327 kts 239°
2026-04-16 11:02 39.32519 1.95527 15752 ft 327 kts 239°
2026-04-16 11:02 39.31264 1.93082 15561 ft 327 kts 239°
2026-04-16 11:02 39.30011 1.90638 15350 ft 326 kts 239°
2026-04-16 11:02 39.28761 1.88203 15163 ft 325 kts 239°
2026-04-16 11:03 39.27517 1.85777 14973 ft 324 kts 239°
2026-04-16 11:03 39.26275 1.83356 14777 ft 323 kts 239°
2026-04-16 11:03 39.23794 1.78537 14393 ft 322 kts 239°
2026-04-16 11:04 39.22554 1.76138 14199 ft 321 kts 239°
2026-04-16 11:04 39.21319 1.73744 14009 ft 320 kts 239°
2026-04-16 11:04 39.20503 1.72167 13869 ft 320 kts 238°
2026-04-16 11:04 39.19217 1.69829 13677 ft 320 kts 236°
2026-04-16 11:05 39.17879 1.67544 13484 ft 319 kts 235°
2026-04-16 11:05 39.16519 1.65290 13297 ft 318 kts 234°
2026-04-16 11:05 39.15157 1.63047 13103 ft 317 kts 234°
2026-04-16 11:05 39.13806 1.60806 12918 ft 316 kts 235°
2026-04-16 11:06 39.12465 1.58565 12715 ft 315 kts 235°
2026-04-16 11:06 39.11133 1.56328 12544 ft 314 kts 235°
2026-04-16 11:06 39.09803 1.54092 12349 ft 314 kts 235°
2026-04-16 11:06 39.08476 1.51862 12161 ft 313 kts 235°
2026-04-16 11:07 39.07158 1.49646 11978 ft 312 kts 235°
2026-04-16 11:07 39.05843 1.47434 11804 ft 311 kts 234°
2026-04-16 11:07 39.04531 1.45228 11617 ft 310 kts 234°
2026-04-16 11:07 39.03231 1.43020 11441 ft 309 kts 235°
2026-04-16 11:08 39.01952 1.40808 11254 ft 308 kts 236°
2026-04-16 11:08 39.00681 1.38597 11070 ft 307 kts 236°
2026-04-16 11:08 38.99412 1.36389 10887 ft 306 kts 236°
2026-04-16 11:08 38.98145 1.34193 10705 ft 306 kts 235°
2026-04-16 11:09 38.96877 1.32005 10531 ft 305 kts 235°
2026-04-16 11:09 38.95613 1.29823 10344 ft 304 kts 235°
2026-04-16 11:09 38.94354 1.27652 10162 ft 302 kts 235°
2026-04-16 11:09 38.93310 1.25856 10002 ft 301 kts 235°
2026-04-16 11:10 38.92133 1.23840 9829 ft 299 kts 235°
2026-04-16 11:10 38.90901 1.21729 9684 ft 291 kts 235°
2026-04-16 11:10 38.89708 1.19688 9532 ft 282 kts 235°
2026-04-16 11:10 38.88585 1.17660 9297 ft 274 kts 243°
2026-04-16 11:11 38.87698 1.15531 9067 ft 268 kts 244°
2026-04-16 11:11 38.86829 1.13440 8831 ft 263 kts 244°
2026-04-16 11:11 38.85974 1.11390 8603 ft 259 kts 243°
2026-04-16 11:11 38.85125 1.09359 8376 ft 258 kts 243°
2026-04-16 11:12 38.84279 1.07335 8151 ft 257 kts 243°
2026-04-16 11:12 38.83437 1.05322 7932 ft 256 kts 243°
2026-04-16 11:12 38.82597 1.03319 7716 ft 255 kts 243°
2026-04-16 11:12 38.81759 1.01320 7493 ft 254 kts 243°
2026-04-16 11:13 38.80923 0.99329 7283 ft 253 kts 243°
2026-04-16 11:13 38.80091 0.97343 7058 ft 252 kts 243°
2026-04-16 11:13 38.79182 0.95425 6833 ft 252 kts 232°
2026-04-16 11:13 38.77955 0.93823 6516 ft 252 kts 223°
2026-04-16 11:14 38.76663 0.92302 6191 ft 252 kts 221°
2026-04-16 11:14 38.75174 0.91166 5855 ft 251 kts 197°
2026-04-16 11:14 38.73463 0.90948 5527 ft 245 kts 171°
2026-04-16 11:14 38.71891 0.91630 5211 ft 235 kts 149°
2026-04-16 11:15 38.70692 0.92963 4885 ft 225 kts 123°
2026-04-16 11:15 38.70153 0.94777 4582 ft 216 kts 93°
2026-04-16 11:15 38.70382 0.96622 4269 ft 209 kts 68°
2026-04-16 11:15 38.71007 0.98276 3982 ft 203 kts 63°
2026-04-16 11:16 38.71659 0.99827 3706 ft 193 kts 63°
2026-04-16 11:16 38.72281 1.01307 3403 ft 185 kts 63°
2026-04-16 11:16 38.72881 1.02736 3106 ft 179 kts 64°
2026-04-16 11:16 38.73454 1.04102 3006 ft 168 kts 64°
2026-04-16 11:17 38.73982 1.05364 3004 ft 156 kts 64°
2026-04-16 11:17 38.74483 1.06560 3021 ft 151 kts 64°
2026-04-16 11:17 38.74974 1.07735 3012 ft 149 kts 64°
2026-04-16 11:17 38.75462 1.08904 3012 ft 148 kts 64°
2026-04-16 11:18 38.75949 1.10068 3009 ft 148 kts 64°
2026-04-16 11:18 38.76435 1.11232 3009 ft 148 kts 64°
2026-04-16 11:18 38.76921 1.12395 3009 ft 148 kts 64°
2026-04-16 11:18 38.77408 1.13563 3009 ft 148 kts 64°
2026-04-16 11:19 38.77895 1.14730 3014 ft 148 kts 64°
2026-04-16 11:19 38.78380 1.15892 3012 ft 147 kts 64°
2026-04-16 11:19 38.78862 1.17047 3012 ft 147 kts 64°
2026-04-16 11:19 38.79345 1.18204 2965 ft 148 kts 64°
2026-04-16 11:20 38.79828 1.19363 2840 ft 147 kts 64°
2026-04-16 11:20 38.80309 1.20517 2674 ft 146 kts 64°
2026-04-16 11:20 38.80788 1.21667 2483 ft 146 kts 64°
2026-04-16 11:20 38.81265 1.22815 2291 ft 146 kts 64°
2026-04-16 11:21 38.81741 1.23958 2096 ft 145 kts 63°
2026-04-16 11:21 38.82207 1.25076 1906 ft 140 kts 63°
2026-04-16 11:21 38.82662 1.26172 1720 ft 139 kts 63°
2026-04-16 11:21 38.83116 1.27264 1533 ft 139 kts 63°
2026-04-16 11:22 38.83569 1.28354 1350 ft 138 kts 63°
2026-04-16 11:22 38.84022 1.29444 1163 ft 138 kts 63°
2026-04-16 11:22 38.84475 1.30536 990 ft 139 kts 63°
2026-04-16 11:22 38.84929 1.31629 798 ft 139 kts 63°
2026-04-16 11:23 38.85384 1.32724 620 ft 139 kts 63°
2026-04-16 11:23 38.85838 1.33821 421 ft 138 kts 63°
2026-04-16 11:23 38.86287 1.34911 239 ft 138 kts 63°
2026-04-16 11:23 38.86740 1.35994 57 ft 137 kts 62°
2026-04-16 11:24 38.87145 1.36976 12 ft 96 kts 62°
2026-04-16 11:24 38.87364 1.37505 11 ft 55 kts 63°
2026-04-16 11:24 38.87520 1.37794 11 ft 27 kts 43°
2026-04-16 11:24 38.87600 1.37868 10 ft 0 kts 31°
2026-04-16 11:25 38.87607 1.37873 10 ft 5 kts 30°
2026-04-16 11:25 38.87640 1.37898 10 ft 0 kts 31°
2026-04-16 11:26 38.87672 1.37913 10 ft 9 kts
2026-04-16 11:27 38.87693 1.37844 9 ft 11 kts 240°
2026-04-16 11:27 38.87650 1.37743 10 ft 15 kts 242°
2026-04-16 11:27 38.87594 1.37611 9 ft 19 kts 243°
2026-04-16 11:27 38.87527 1.37451 9 ft 22 kts 242°
2026-04-16 11:28 38.87451 1.37265 10 ft 25 kts 241°
2026-04-16 11:28 38.87368 1.37066 9 ft 25 kts 242°
2026-04-16 11:28 38.87304 1.36911 10 ft 9 kts 241°
2026-04-16 11:28 38.87315 1.36855 9 ft 7 kts 329°
2026-04-16 11:29 38.87358 1.36825 10 ft 8 kts 333°
2026-04-16 11:29 38.87406 1.36789 8 ft 8 kts 317°
2026-04-16 11:29 38.87407 1.36729 8 ft 7 kts 247°
2026-04-16 11:29 38.87411 1.36689 8 ft 3 kts 335°
2026-04-16 11:30 38.87425 1.36677 9 ft 2 kts 322°
2026-04-16 11:30 38.87437 1.36665 8 ft 2 kts 323°
2026-04-16 11:30 38.87450 1.36658 8 ft 3 kts 347°
2026-04-16 11:30 38.87467 1.36664 8 ft 2 kts 19°